Regional Weather Roundup
Issued by NWS

Home | Current Version | Previous Version | Text Only | Print | Product List | Glossary On
Versions: 1 2 3 4 5 6 7 8 9 10 11 12 13 14 15 16 17 18 19 20 21 22 23 24 25 26 27 28 29 30 31 32 33 34 35 36 37 38 39 40 41 42 43 44 45 46 47 48 49 50
000
ASUS43 KLSX 240957
RWRMO

WEATHER SUMMARY FOR MISSOURI
NATIONAL WEATHER SERVICE SPRINGFIELD MO
400 AM CST FRI FEB 24 2017

NOTE: "FAIR" INDICATES FEW OR NO CLOUDS BELOW 12,000 FEET WITH NO
       SIGNIFICANT WEATHER AND/OR OBSTRUCTIONS TO VISIBILITY.
       CURRENT SKY AND/OR WEATHER CONDITIONS ARE NOT AVAILABLE FOR
       CHILLICOTHE AND FARMINGTON.

MOZ001>031-035>038-043-044-053-054-241100-
...NORTHERN AND WESTERN MISSOURI...

CITY           SKY/WX    TMP DP  RH WIND       PRES   REMARKS
KANSAS CTY INT CLOUDY    39  37  92 NW16G25   29.51R
LEE`S SUMMIT   CLOUDY    43  40  89 NW12G22   29.51R
ST JOSEPH      CLOUDY    38  37  97 NW15      29.54R WCI  29
CHILLICOTHE      N/A     46  45  96 VRB3      29.44R
KIRKSVILLE     FOG       46  46 100 N13       29.42R VSB 3/4

$$
MOZ066>068-077>081-088>096-101>105-241100-
...SOUTHWEST MISSOURI...

CITY           SKY/WX    TMP DP  RH WIND       PRES   REMARKS
SPRINGFIELD    CLEAR     56  46  69 NW14      29.50R
JOPLIN         PTCLDY    47  44  90 W10       29.57R

$$
MOZ032>034-039>042-045>050-055>058-069>072-241100-
...CENTRAL MISSOURI...

CITY           SKY/WX    TMP DP  RH WIND       PRES   REMARKS
COLUMBIA       NOT AVBL
JEFFERSON CITY CLEAR     62  54  74 SE6       29.40S
ROLLA          CLEAR     62  54  74 S17G23    29.43F
SEDALIA        CLOUDY    50  48  93 W8        29.47R FOG
WARRENSBURG    MOCLDY    43  41  93 W9        29.48R

$$
MOZ051-052-059>065-241100-
...EAST CENTRAL MISSOURI...

CITY           SKY/WX    TMP DP  RH WIND       PRES   REMARKS
ST LOUIS INTL  CLOUDY    65  53  65 S7        29.46R

$$
MOZ072>076-082>087-097>100-106>115-241100-
...SOUTH CENTRAL AND SOUTHEAST MISSOURI...

CITY           SKY/WX    TMP DP  RH WIND       PRES   REMARKS
CAPE GIRARDEAU CLEAR     62  55  77 S10       29.59R
POPLAR BLUFF   CLEAR     61  57  87 S12       29.56F
WEST PLAINS    CLEAR     61  53  75 S9        29.52S

$$



USA.gov is the U.S. government's official web portal to all federal, state and local government web resources and services.